SAOCOM 1B

Last updated on Mon Sep 21 2026 00:02:09 GMT+0000 (Coordinated Universal Time)

1 46265U 20059A 26263.55969752 .00000688 00000+0 92948-4 0 9993 2 46265 97.8907 88.0409 0001409 80.7470 279.3902 14.82150632327617
UTC large
Height (km)
Speed (km/s)
/
Latitude / Longitude
Inclination (degrees)
Orbital Period (minutes)
Azimuth
Elevation
Range (km)
Doppler Factor

Next 0 passes for location: London (51.5072 / 0.1276)

No passes found over London.
SAOCOM 1B